Content
SEND FEEDBACK

Daily
Averages
Monthly
Summary
United States of America

LUALUALEI, HAWAII


Home > North America > United States > Hawaii
Elevation: 34 meters     Latitude: 21 26N     Longitude: 158 08W

WEATHER
 
SELECT A DAY
Number of Records: 207,115;   Date Range: 1/3/95 - 8/12/14
 
SHARE

PRINT THIS DATA

[ ← Previous Day ]
WEATHER ALMANAC - 31 JANUARY, 2013
[ Next Day → ]
[ °F ]   °C
Weather ElementAverageHighLow
Temperature20.3 °C24.8 °C (12:55 pm)16.7 °C (2:55 am)
Dewpoint16.5 °C18 °C (9:55 am)15.4 °C (2:55 am)
Humidity79.5 %92 % (2:55 am)61 % (12:55 pm)
Barometer1017.9 hPa1019 hPa (9:55 am)1016.6 hPa (3:55 am)
Wind Speed13.5 km/h25.9 km/h (8:55 pm)
Wind Gust33.3 km/h (12:55 pm)
Weather ElementAverage
Visibility16.1 km
Wind DirectionESE (124.8 °)

Weather ElementTotal
Precipitation---
Cooling Degree Days2.4 (Base 18.3)
Growing Degree Days10.8 (Base 10)
Averaged from 29 records on 31 January, 2013
WEATHER CONDITIONS BREAKOUT
WIND DIRECTION BREAKOUT
WEATHER BY HOUR - 31 JANUARY, 2013
[ °F ]   °C
Local TimeTemperatureDewpointHumidityBarometerVisibilityWind DirectionWind SpeedGust SpeedPrecipitationEventsConditions
1:55 AM17.3 °C15.8 °C91 %1016.9 hPa16.1 kmWNW (300°)7.4 km/hClear
2:55 AM16.7 °C15.4 °C92 %1016.9 hPa16.1 kmNW (310°)7.4 km/hClear
3:55 AM17.2 °C15.6 °C90 %1016.6 hPa16.1 kmWNW (290°)7.4 km/hClear
4:55 AM16.8 °C15.5 °C92 %1016.6 hPa16.1 kmNW (310°)9.3 km/hClear
5:55 AM17 °C15.6 °C91 %1016.9 hPa16.1 kmWNW (300°)9.3 km/hClear
6:55 AM17.1 °C15.7 °C91 %1017.6 hPa16.1 kmWNW (300°)5.6 km/hMostly Cloudy
7:55 AM18.2 °C16.8 °C92 %1017.9 hPa16.1 kmNW (320°)7.4 km/hOvercast
8:55 AM20.2 °C17.9 °C87 %1018.6 hPa16.1 kmNW (310°)9.3 km/hClear
9:55 AM21.6 °C18 °C80 %1019 hPa16.1 kmNorth (10°)14.8 km/hScattered Clouds
10:55 AM23.2 °C17.5 °C70 %1019 hPa16.1 kmNorth (360°)9.3 km/hScattered Clouds
11:55 AM23.9 °C17.2 °C66 %1018.3 hPa16.1 kmNE (40°)18.5 km/hClear
12:55 PM24.8 °C16.8 °C61 %1017.6 hPa16.1 kmENE (70°)22.2 km/h33.3 km/hClear
1:55 PM24.3 °C16.8 °C63 %1016.9 hPa16.1 kmNE (40°)14.8 km/hPartly Cloudy
2:55 PM23.6 °C16 °C62 %1016.6 hPa16.1 kmNE (50°)13 km/hScattered Clouds
3:55 PM23.7 °C16.8 °C65 %1016.6 hPa16.1 kmNNE (30°)13 km/hPartly Cloudy
4:55 PM23.1 °C16.3 °C65 %1017.3 hPa16.1 kmNNE (20°)13 km/hClear
5:55 PM21.6 °C16.7 °C74 %1017.9 hPa16.1 kmNorth (360°)11.1 km/hPartly Cloudy
6:55 PM20.4 °C16.7 °C79 %1017.9 hPa16.1 kmVariable9.3 km/hClear
7:55 PM20.2 °C16.6 °C80 %1018.3 hPa16.1 kmNE (40°)13 km/hClear
8:55 PM20.4 °C16.3 °C77 %1018.6 hPa16.1 kmNE (40°)25.9 km/hClear
9:28 PM20 °C16 °C78 %1019 hPa16.1 kmNorth (10°)16.7 km/hLight Drizzle
9:37 PM20 °C16 °C78 %1019 hPa16.1 kmNorth (10°)14.8 km/hPartly Cloudy
9:48 PM20 °C17 °C83 %1019 hPa16.1 kmNNE (20°)16.7 km/hLight Drizzle
9:55 PM19.9 °C16.6 °C81 %1019 hPa16.1 kmNorth (10°)16.7 km/h0 mmLight Drizzle
9:58 PM20 °C17 °C83 %1019 hPa16.1 kmNorth (10°)14.8 km/hScattered Clouds
10:09 PM20 °C17 °C83 %1019 hPa16.1 kmNorth (10°)16.7 km/hLight Drizzle
10:32 PM19 °C17 °C88 %1019 hPa16.1 kmNorth (10°)16.7 km/hScattered Clouds
10:55 PM19.4 °C16.6 °C84 %1019 hPa16.1 kmNNE (20°)18.5 km/h0 mmPartly Cloudy
11:55 PM19.5 °C16 °C80 %1018.6 hPa16.1 kmNNE (20°)18.5 km/hPartly Cloudy
Hourly data recorded from PHHI, located 0 kilometers away from Lualualei, Hawaii







STORIES FROM OUR PARTNERS